Wetterdaten: aktuell Montag, 17.02.2020 08:20
Datum Zeit Temp. I. Temp.2m Temp. 5cm Temp. Wz Feuchte I. Feuchte 2m Luftdruck Regen Wind Richtung Richtung Taupunkt Windchill Windben
17.02.2020 08:20 23,2 C 1,5 C 0,7 C 23,7 C 54 % 80 % 1017,8 hPa 0,0 l/m 0,3 km/h (0 Bft) S-SW 202 -1,6 C 1,5 C 0,0 km/h (0 Bft)
17.02.2020 08:18 23,2 C 1,4 C 0,8 C 23,8 C 54 % 80 % 1017,8 hPa 0,0 l/m 0,0 km/h (0 Bft) SO 135 -1,7 C 1,4 C 0,0 km/h (0 Bft)
17.02.2020 08:16 23,2 C 1,4 C 0,8 C 23,9 C 54 % 80 % 1017,8 hPa 0,0 l/m 0,0 km/h (0 Bft) SW 225 -1,7 C 1,4 C 0,0 km/h (0 Bft)
17.02.2020 08:14 23,2 C 1,4 C 0,7 C 23,9 C 54 % 80 % 1017,8 hPa 0,0 l/m 0,0 km/h (0 Bft) O-SO 112 -1,7 C 1,4 C 0,0 km/h (0 Bft)
17.02.2020 08:12 23,2 C 1,3 C 0,7 C 23,9 C 54 % 80 % 1017,8 hPa 0,0 l/m 0,0 km/h (0 Bft) O 90 -1,8 C 1,3 C 0,0 km/h (0 Bft)
17.02.2020 08:10 23,2 C 1,3 C 0,6 C 23,8 C 54 % 80 % 1017,9 hPa 0,0 l/m 0,0 km/h (0 Bft) W-SW 247 -1,8 C 1,3 C 0,0 km/h (0 Bft)
17.02.2020 08:08 23,2 C 1,3 C 0,8 C 23,9 C 54 % 80 % 1017,9 hPa 0,0 l/m 0,0 km/h (0 Bft) S-SO 157 -1,8 C 1,3 C 0,0 km/h (0 Bft)
17.02.2020 08:06 23,2 C 1,1 C 0,5 C 23,8 C 54 % 80 % 1017,9 hPa 0,0 l/m 0,0 km/h (0 Bft) N-NW 337 -2,0 C 1,1 C 0,0 km/h (0 Bft)
17.02.2020 08:04 23,2 C 1,1 C 0,4 C 23,9 C 54 % 80 % 1017,9 hPa 0,0 l/m 0,0 km/h (0 Bft) N-NW 337 -2,0 C 1,1 C 0,0 km/h (0 Bft)
17.02.2020 08:02 23,2 C 1,1 C 0,4 C 23,9 C 54 % 80 % 1017,9 hPa 0,0 l/m 0,0 km/h (0 Bft) N-NO 22 -2,0 C 1,1 C 0,0 km/h (0 Bft)
17.02.2020 08:00 23,3 C 1,1 C 0,2 C 23,9 C 54 % 80 % 1017,9 hPa 0,0 l/m 0,5 km/h (0 Bft) N-NO 22 -2,0 C 1,1 C 0,0 km/h (0 Bft)
17.02.2020 07:58 23,3 C 1,1 C 0,2 C 24,0 C 54 % 80 % 1017,9 hPa 0,0 l/m 1,0 km/h (0 Bft) N-NW 337 -2,0 C 1,1 C 0,0 km/h (0 Bft)
17.02.2020 07:56 23,2 C 1,1 C 0,1 C 24,0 C 54 % 79 % 1017,9 hPa 0,0 l/m 1,3 km/h (1 Bft) SW 225 -2,1 C 1,1 C 0,0 km/h (0 Bft)
17.02.2020 07:54 23,2 C 1,1 C 0,1 C 24,0 C 54 % 79 % 1017,9 hPa 0,0 l/m 1,3 km/h (1 Bft) NW 315 -2,1 C 1,1 C 0,0 km/h (0 Bft)
17.02.2020 07:52 23,2 C 1,1 C 0,2 C 23,9 C 54 % 79 % 1017,9 hPa 0,0 l/m 1,4 km/h (1 Bft) S 180 -2,1 C 1,1 C 0,0 km/h (0 Bft)
17.02.2020 07:50 23,2 C 1,1 C 0,3 C 23,9 C 54 % 79 % 1017,7 hPa 0,0 l/m 1,1 km/h (1 Bft) O 90 -2,1 C 1,1 C 4,6 km/h (1 Bft)
17.02.2020 07:48 23,2 C 1,1 C 0,2 C 23,9 C 53 % 79 % 1017,7 hPa 0,0 l/m 0,8 km/h (0 Bft) O-NO 67 -2,1 C 1,1 C 5,8 km/h (2 Bft)
17.02.2020 07:46 23,2 C 1,1 C 0,1 C 23,9 C 54 % 79 % 1017,7 hPa 0,0 l/m 0,3 km/h (0 Bft) O-NO 67 -2,1 C 1,1 C 4,3 km/h (1 Bft)
17.02.2020 07:44 23,2 C 1,1 C 0,1 C 23,9 C 54 % 79 % 1017,7 hPa 0,0 l/m 0,2 km/h (0 Bft) O-NO 67 -2,1 C 1,1 C 0,0 km/h (0 Bft)
17.02.2020 07:42 23,2 C 1,3 C -0,2 C 23,8 C 54 % 79 % 1017,7 hPa 0,0 l/m 0,3 km/h (0 Bft) S 180 -1,9 C 1,3 C 2,9 km/h (1 Bft)
17.02.2020 07:40 23,2 C 1,3 C 0,0 C 23,9 C 54 % 79 % 1017,7 hPa 0,0 l/m 0,3 km/h (0 Bft) SO 135 -1,9 C 1,3 C 0,0 km/h (0 Bft)
17.02.2020 07:38 23,2 C 1,4 C -0,1 C 23,9 C 54 % 78 % 1017,7 hPa 0,0 l/m 0,3 km/h (0 Bft) NO 45 -2,0 C 1,4 C 0,0 km/h (0 Bft)
17.02.2020 07:36 23,2 C 1,4 C 0,0 C 23,8 C 53 % 78 % 1017,7 hPa 0,0 l/m 0,3 km/h (0 Bft) NO 45 -2,0 C 1,4 C 0,0 km/h (0 Bft)
17.02.2020 07:34 23,2 C 1,5 C 0,0 C 23,7 C 53 % 78 % 1017,7 hPa 0,0 l/m 0,3 km/h (0 Bft) SW 225 -1,9 C 1,5 C 0,0 km/h (0 Bft)
17.02.2020 07:32 23,1 C 1,6 C 0,0 C 23,8 C 53 % 78 % 1017,7 hPa 0,0 l/m 0,6 km/h (0 Bft) N-NW 337 -1,8 C 1,6 C 2,9 km/h (1 Bft)
17.02.2020 07:30 23,1 C 1,7 C 0,2 C 23,7 C 53 % 78 % 1017,7 hPa 0,0 l/m 1,3 km/h (1 Bft) S-SO 157 -1,7 C 1,7 C 2,9 km/h (1 Bft)
17.02.2020 07:28 23,1 C 1,7 C 0,2 C 23,7 C 54 % 78 % 1017,7 hPa 0,0 l/m 1,9 km/h (1 Bft) S 180 -1,7 C 1,7 C 0,0 km/h (0 Bft)
17.02.2020 07:26 23,1 C 1,9 C 0,2 C 23,7 C 54 % 78 % 1017,7 hPa 0,0 l/m 3,2 km/h (1 Bft) S-SW 202 -1,5 C 1,9 C 0,0 km/h (0 Bft)
17.02.2020 07:24 23,1 C 1,9 C 0,4 C 23,6 C 54 % 78 % 1017,7 hPa 0,0 l/m 4,0 km/h (1 Bft) O 90 -1,5 C 1,9 C 0,0 km/h (0 Bft)
17.02.2020 07:22 23,1 C 2,0 C 0,5 C 23,6 C 54 % 77 % 1017,7 hPa 0,0 l/m 4,0 km/h (1 Bft) O 90 -1,6 C 2,0 C 5,1 km/h (1 Bft)
17.02.2020 07:20 23,1 C 2,0 C 0,8 C 23,6 C 54 % 77 % 1017,7 hPa 0,0 l/m 4,0 km/h (1 Bft) S-SO 157 -1,6 C 2,0 C 9,7 km/h (2 Bft)
17.02.2020 07:18 23,1 C 2,0 C 1,1 C 23,7 C 54 % 77 % 1017,7 hPa 0,0 l/m 4,3 km/h (1 Bft) SO 135 -1,6 C 2,0 C 9,7 km/h (2 Bft)
17.02.2020 07:16 23,1 C 1,9 C 1,2 C 23,7 C 54 % 78 % 1017,7 hPa 0,0 l/m 4,3 km/h (1 Bft) O 90 -1,5 C 1,9 C 11,8 km/h (2 Bft)
17.02.2020 07:14 23,0 C 1,9 C 0,6 C 23,6 C 54 % 77 % 1017,7 hPa 0,0 l/m 4,8 km/h (1 Bft) O-NO 67 -1,7 C 1,9 C 5,8 km/h (2 Bft)
17.02.2020 07:12 23,1 C 2,0 C 0,4 C 23,5 C 54 % 77 % 1017,7 hPa 0,0 l/m 6,6 km/h (2 Bft) O-NO 67 -1,6 C 1,8 C 3,6 km/h (1 Bft)
17.02.2020 07:10 23,0 C 2,0 C 0,5 C 23,5 C 54 % 77 % 1017,9 hPa 0,0 l/m 7,9 km/h (2 Bft) S-SO 157 -1,6 C 0,5 C 7,2 km/h (2 Bft)
17.02.2020 07:08 23,0 C 1,9 C 0,7 C 23,4 C 54 % 77 % 1017,9 hPa 0,0 l/m 8,5 km/h (2 Bft) S-SO 157 -1,7 C -0,1 C 8,4 km/h (2 Bft)
17.02.2020 07:06 23,0 C 2,1 C 1,0 C 23,4 C 54 % 77 % 1017,9 hPa 0,0 l/m 8,2 km/h (2 Bft) S-SO 157 -1,5 C 0,4 C 13,5 km/h (3 Bft)
17.02.2020 07:04 23,0 C 2,1 C 1,1 C 23,5 C 54 % 77 % 1017,9 hPa 0,0 l/m 7,9 km/h (2 Bft) SO 135 -1,5 C 0,7 C 16,7 km/h (3 Bft)
17.02.2020 07:02 23,0 C 2,1 C 1,2 C 23,4 C 54 % 77 % 1017,9 hPa 0,0 l/m 7,7 km/h (2 Bft) SO 135 -1,5 C 0,8 C 15,7 km/h (3 Bft)
17.02.2020 07:00 23,0 C 2,0 C 1,3 C 23,3 C 54 % 77 % 1017,9 hPa 0,0 l/m 7,6 km/h (2 Bft) S-SO 157 -1,6 C 0,8 C 16,7 km/h (3 Bft)
17.02.2020 06:58 23,0 C 2,0 C 0,8 C 23,3 C 54 % 77 % 1017,9 hPa 0,0 l/m 7,2 km/h (2 Bft) S-SO 157 -1,6 C 1,2 C 17,4 km/h (3 Bft)
17.02.2020 06:56 23,0 C 2,0 C 1,0 C 23,3 C 54 % 77 % 1017,9 hPa 0,0 l/m 7,7 km/h (2 Bft) O-SO 112 -1,6 C 0,7 C 8,0 km/h (2 Bft)
17.02.2020 06:54 22,9 C 1,9 C 1,0 C 23,2 C 53 % 77 % 1017,9 hPa 0,0 l/m 8,5 km/h (2 Bft) S-SO 157 -1,7 C -0,1 C 14,5 km/h (3 Bft)
17.02.2020 06:52 22,9 C 2,1 C 1,0 C 23,2 C 53 % 77 % 1017,9 hPa 0,0 l/m 8,4 km/h (2 Bft) S-SO 157 -1,5 C 0,2 C 15,2 km/h (3 Bft)
17.02.2020 06:50 22,9 C 2,1 C 1,1 C 23,2 C 53 % 77 % 1017,4 hPa 0,0 l/m 8,2 km/h (2 Bft) S-SO 157 -1,5 C 0,4 C 11,3 km/h (2 Bft)
17.02.2020 06:48 22,9 C 2,1 C 1,2 C 23,1 C 53 % 77 % 1017,4 hPa 0,0 l/m 8,0 km/h (2 Bft) S-SO 157 -1,5 C 0,6 C 12,8 km/h (3 Bft)
17.02.2020 06:46 22,9 C 2,1 C 1,2 C 23,1 C 53 % 77 % 1017,4 hPa 0,0 l/m 7,4 km/h (2 Bft) S-SO 157 -1,5 C 1,1 C 15,9 km/h (3 Bft)
17.02.2020 06:44 22,9 C 2,1 C 1,2 C 23,1 C 53 % 77 % 1017,4 hPa 0,0 l/m 6,6 km/h (2 Bft) S-SO 157 -1,5 C 1,9 C 14,0 km/h (3 Bft)
17.02.2020 06:42 22,9 C 2,1 C 1,2 C 23,0 C 53 % 77 % 1017,4 hPa 0,0 l/m 6,3 km/h (2 Bft) S-SW 202 -1,5 C 2,1 C 17,6 km/h (3 Bft)
17.02.2020 06:40 22,9 C 2,1 C 1,2 C 22,9 C 53 % 77 % 1017,4 hPa 0,0 l/m 6,3 km/h (2 Bft) SO 135 -1,5 C 2,1 C 17,4 km/h (3 Bft)
17.02.2020 06:38 22,9 C 2,1 C 1,0 C 22,9 C 53 % 77 % 1017,4 hPa 0,0 l/m 6,3 km/h (2 Bft) O 90 -1,5 C 2,1 C 12,8 km/h (3 Bft)
17.02.2020 06:36 22,8 C 2,1 C 0,8 C 22,9 C 53 % 77 % 1017,4 hPa 0,0 l/m 6,4 km/h (2 Bft) S-SO 157 -1,5 C 2,1 C 9,7 km/h (2 Bft)
17.02.2020 06:34 22,8 C 2,1 C 1,0 C 22,8 C 53 % 77 % 1017,4 hPa 0,0 l/m 7,1 km/h (2 Bft) S 180 -1,5 C 1,4 C 11,8 km/h (2 Bft)
17.02.2020 06:32 22,8 C 2,1 C 0,8 C 22,9 C 53 % 77 % 1017,4 hPa 0,0 l/m 7,9 km/h (2 Bft) SO 135 -1,5 C 0,7 C 11,1 km/h (2 Bft)
17.02.2020 06:30 22,8 C 2,1 C 1,1 C 22,9 C 53 % 77 % 1017,6 hPa 0,0 l/m 8,0 km/h (2 Bft) S-SO 157 -1,5 C 0,6 C 11,8 km/h (2 Bft)
17.02.2020 06:28 22,8 C 2,1 C 1,2 C 22,8 C 53 % 77 % 1017,6 hPa 0,0 l/m 7,2 km/h (2 Bft) S-SO 157 -1,5 C 1,3 C 18,3 km/h (3 Bft)
17.02.2020 06:26 22,8 C 2,1 C 1,2 C 22,7 C 53 % 77 % 1017,6 hPa 0,0 l/m 6,4 km/h (2 Bft) SO 135 -1,5 C 2,1 C 15,7 km/h (3 Bft)
17.02.2020 06:24 22,8 C 2,1 C 1,3 C 22,7 C 53 % 77 % 1017,6 hPa 0,0 l/m 5,8 km/h (2 Bft) O 90 -1,5 C 2,1 C 14,5 km/h (3 Bft)
17.02.2020 06:22 22,8 C 2,0 C 1,2 C 22,6 C 53 % 77 % 1017,6 hPa 0,0 l/m 5,5 km/h (1 Bft) S-SO 157 -1,6 C 2,0 C 18,1 km/h (3 Bft)
17.02.2020 06:20 22,8 C 2,1 C 1,0 C 22,7 C 53 % 77 % 1017,6 hPa 0,0 l/m 5,0 km/h (1 Bft) S-SO 157 -1,5 C 2,1 C 14,5 km/h (3 Bft)
17.02.2020 06:18 22,8 C 2,1 C 0,7 C 22,7 C 53 % 77 % 1017,6 hPa 0,0 l/m 4,2 km/h (1 Bft) SO 135 -1,5 C 2,1 C 5,6 km/h (1 Bft)
17.02.2020 06:16 22,8 C 2,1 C 0,7 C 22,6 C 53 % 77 % 1017,6 hPa 0,0 l/m 4,3 km/h (1 Bft) W-SW 247 -1,5 C 2,1 C 4,3 km/h (1 Bft)
17.02.2020 06:14 22,8 C 2,1 C 0,8 C 22,5 C 53 % 77 % 1017,6 hPa 0,0 l/m 4,7 km/h (1 Bft) S-SO 157 -1,5 C 2,1 C 8,2 km/h (2 Bft)
17.02.2020 06:12 22,8 C 2,2 C 1,0 C 22,5 C 53 % 77 % 1017,6 hPa 0,0 l/m 3,4 km/h (1 Bft) SO 135 -1,4 C 2,2 C 6,0 km/h (2 Bft)
17.02.2020 06:10 22,8 C 2,2 C 0,8 C 22,5 C 53 % 76 % 1017,8 hPa 0,0 l/m 3,4 km/h (1 Bft) SO 135 -1,6 C 2,2 C 6,0 km/h (2 Bft)
17.02.2020 06:08 22,8 C 2,2 C 0,8 C 22,5 C 53 % 76 % 1017,8 hPa 0,0 l/m 3,4 km/h (1 Bft) SO 135 -1,6 C 2,2 C 6,0 km/h (2 Bft)
17.02.2020 06:06 22,8 C 2,2 C 0,8 C 22,5 C 53 % 76 % 1017,8 hPa 0,0 l/m 3,4 km/h (1 Bft) SO 135 -1,6 C 2,2 C 6,0 km/h (2 Bft)
17.02.2020 06:04 22,8 C 2,2 C 0,8 C 22,5 C 53 % 76 % 1017,8 hPa 0,0 l/m 3,4 km/h (1 Bft) SO 135 -1,6 C 2,2 C 6,0 km/h (2 Bft)
17.02.2020 06:02 22,8 C 2,2 C 0,8 C 22,5 C 53 % 76 % 1017,8 hPa 0,0 l/m 3,7 km/h (1 Bft) SO 135 -1,6 C 2,2 C 8,7 km/h (2 Bft)
17.02.2020 06:00 22,8 C 2,2 C 0,7 C 22,5 C 53 % 76 % 1017,8 hPa 0,0 l/m 4,8 km/h (1 Bft) O 90 -1,6 C 2,2 C 4,8 km/h (1 Bft)
17.02.2020 05:58 22,9 C 2,3 C 0,7 C 22,5 C 53 % 76 % 1017,8 hPa 0,0 l/m 5,1 km/h (1 Bft) SO 135 -1,5 C 2,3 C 4,8 km/h (1 Bft)
17.02.2020 05:56 22,8 C 2,3 C 0,8 C 22,5 C 53 % 76 % 1017,8 hPa 0,0 l/m 5,3 km/h (1 Bft) SO 135 -1,5 C 2,3 C 6,8 km/h (2 Bft)
17.02.2020 05:54 22,9 C 2,4 C 1,0 C 22,5 C 53 % 76 % 1017,8 hPa 0,0 l/m 6,0 km/h (2 Bft) S 180 -1,4 C 2,4 C 11,8 km/h (2 Bft)
17.02.2020 05:52 22,9 C 2,7 C 1,0 C 22,5 C 53 % 76 % 1017,8 hPa 0,0 l/m 6,1 km/h (2 Bft) SO 135 -1,1 C 2,7 C 15,9 km/h (3 Bft)
17.02.2020 05:50 22,9 C 2,7 C 1,4 C 22,5 C 53 % 76 % 1017,7 hPa 0,0 l/m 5,8 km/h (2 Bft) O 90 -1,1 C 2,7 C 12,6 km/h (3 Bft)
17.02.2020 05:48 22,9 C 2,7 C 1,8 C 22,5 C 53 % 76 % 1017,7 hPa 0,0 l/m 6,0 km/h (2 Bft) S-SO 157 -1,1 C 2,7 C 6,0 km/h (2 Bft)
17.02.2020 05:46 22,9 C 2,7 C 1,6 C 22,5 C 53 % 76 % 1017,7 hPa 0,0 l/m 6,4 km/h (2 Bft) O-NO 67 -1,1 C 2,7 C 4,8 km/h (1 Bft)
17.02.2020 05:44 22,9 C 2,7 C 1,6 C 22,5 C 53 % 76 % 1017,7 hPa 0,0 l/m 6,3 km/h (2 Bft) SO 135 -1,1 C 2,7 C 13,3 km/h (3 Bft)
17.02.2020 05:42 22,9 C 2,7 C 1,8 C 22,5 C 53 % 76 % 1017,7 hPa 0,0 l/m 5,1 km/h (1 Bft) S-SO 157 -1,1 C 2,7 C 15,0 km/h (3 Bft)
17.02.2020 05:40 22,9 C 2,7 C 1,8 C 22,5 C 53 % 76 % 1017,7 hPa 0,0 l/m 4,0 km/h (1 Bft) SW 225 -1,1 C 2,7 C 10,4 km/h (2 Bft)
17.02.2020 05:38 22,9 C 2,7 C 1,8 C 22,5 C 53 % 76 % 1017,7 hPa 0,0 l/m 3,7 km/h (1 Bft) S-SO 157 -1,1 C 2,7 C 13,0 km/h (3 Bft)
17.02.2020 05:36 22,9 C 2,6 C 1,9 C 22,5 C 53 % 76 % 1017,7 hPa 0,0 l/m 2,7 km/h (1 Bft) W 270 -1,2 C 2,6 C 8,7 km/h (2 Bft)
17.02.2020 05:34 22,9 C 2,3 C 1,8 C 22,6 C 53 % 76 % 1017,7 hPa 0,0 l/m 2,3 km/h (1 Bft) O-NO 67 -1,5 C 2,3 C 7,2 km/h (2 Bft)
17.02.2020 05:32 22,9 C 2,3 C 1,2 C 22,6 C 53 % 76 % 1017,7 hPa 0,0 l/m 2,1 km/h (1 Bft) O 90 -1,5 C 2,3 C 3,1 km/h (1 Bft)
17.02.2020 05:30 22,9 C 2,3 C 1,1 C 22,6 C 53 % 76 % 1017,8 hPa 0,0 l/m 2,1 km/h (1 Bft) O 90 -1,5 C 2,3 C 3,1 km/h (1 Bft)
17.02.2020 05:28 22,9 C 2,4 C 1,0 C 22,6 C 53 % 76 % 1017,8 hPa 0,0 l/m 2,3 km/h (1 Bft) O-NO 67 -1,4 C 2,4 C 5,6 km/h (1 Bft)
17.02.2020 05:26 23,0 C 2,4 C 1,1 C 22,6 C 53 % 76 % 1017,8 hPa 0,0 l/m 2,7 km/h (1 Bft) O 90 -1,4 C 2,4 C 4,1 km/h (1 Bft)
17.02.2020 05:24 23,0 C 2,4 C 1,3 C 22,7 C 53 % 76 % 1017,8 hPa 0,0 l/m 3,1 km/h (1 Bft) O-SO 112 -1,4 C 2,4 C 5,1 km/h (1 Bft)
17.02.2020 05:22 23,0 C 2,6 C 1,3 C 22,7 C 53 % 76 % 1017,8 hPa 0,0 l/m 3,9 km/h (1 Bft) O-SO 112 -1,2 C 2,6 C 6,3 km/h (2 Bft)
17.02.2020 05:20 23,0 C 2,6 C 1,5 C 22,7 C 53 % 76 % 1017,8 hPa 0,0 l/m 3,5 km/h (1 Bft) O-NO 67 -1,2 C 2,6 C 0,0 km/h (0 Bft)
17.02.2020 05:18 23,0 C 2,4 C 1,4 C 22,7 C 53 % 77 % 1017,8 hPa 0,0 l/m 3,7 km/h (1 Bft) O 90 -1,2 C 2,4 C 4,8 km/h (1 Bft)
17.02.2020 05:16 23,0 C 2,4 C 1,6 C 22,7 C 53 % 77 % 1017,8 hPa 0,0 l/m 3,5 km/h (1 Bft) S-SO 157 -1,2 C 2,4 C 7,5 km/h (2 Bft)
17.02.2020 05:14 23,0 C 2,4 C 1,6 C 22,6 C 53 % 77 % 1017,8 hPa 0,0 l/m 3,5 km/h (1 Bft) O-SO 112 -1,2 C 2,4 C 11,6 km/h (2 Bft)
17.02.2020 05:12 23,0 C 2,3 C 1,3 C 22,7 C 53 % 77 % 1017,8 hPa 0,0 l/m 3,2 km/h (1 Bft) S 180 -1,3 C 2,3 C 12,6 km/h (3 Bft)
17.02.2020 05:10 23,0 C 2,3 C 1,5 C 22,7 C 53 % 77 % 1018,0 hPa 0,0 l/m 3,2 km/h (1 Bft) S-SO 157 -1,3 C 2,3 C 0,0 km/h (0 Bft)
17.02.2020 05:08 23,0 C 2,3 C 1,4 C 22,7 C 53 % 77 % 1018,0 hPa 0,0 l/m 4,0 km/h (1 Bft) SO 135 -1,3 C 2,3 C 3,6 km/h (1 Bft)
17.02.2020 05:06 23,0 C 2,2 C 1,4 C 22,7 C 53 % 77 % 1018,0 hPa 0,0 l/m 4,0 km/h (1 Bft) SO 135 -1,4 C 2,2 C 6,5 km/h (2 Bft)
17.02.2020 05:04 23,0 C 2,2 C 1,4 C 22,7 C 53 % 77 % 1018,0 hPa 0,0 l/m 3,9 km/h (1 Bft) O-SO 112 -1,4 C 2,2 C 6,3 km/h (2 Bft)
17.02.2020 05:02 23,0 C 2,2 C 1,4 C 22,7 C 53 % 77 % 1018,0 hPa 0,0 l/m 3,9 km/h (1 Bft) O-SO 112 -1,4 C 2,2 C 6,3 km/h (2 Bft)
17.02.2020 05:01 23,0 C 2,1 C 1,5 C 22,7 C 53 % 77 % 1018,0 hPa 0,0 l/m 3,7 km/h (1 Bft) O-NO 67 -1,5 C 2,1 C 5,3 km/h (1 Bft)
17.02.2020 05:00 23,0 C 2,1 C 1,5 C 22,7 C 53 % 77 % 1018,0 hPa 0,0 l/m 3,5 km/h (1 Bft) S 180 -1,5 C 2,1 C 10,6 km/h (2 Bft)
17.02.2020 04:58 23,0 C 1,9 C 1,6 C 22,6 C 53 % 77 % 1018,0 hPa 0,0 l/m 2,3 km/h (1 Bft) S 180 -1,7 C 1,9 C 10,1 km/h (2 Bft)
17.02.2020 04:56 23,0 C 1,6 C 1,1 C 22,7 C 53 % 77 % 1018,0 hPa 0,0 l/m 1,9 km/h (1 Bft) O 90 -2,0 C 1,6 C 6,5 km/h (2 Bft)
17.02.2020 04:54 23,0 C 1,6 C 0,4 C 22,6 C 53 % 77 % 1018,0 hPa 0,0 l/m 1,9 km/h (1 Bft) O 90 -2,0 C 1,6 C 6,3 km/h (2 Bft)
17.02.2020 04:52 23,0 C 1,7 C 0,3 C 22,6 C 53 % 77 % 1018,0 hPa 0,0 l/m 1,9 km/h (1 Bft) NO 45 -1,9 C 1,7 C 3,6 km/h (1 Bft)
17.02.2020 04:50 23,0 C 1,7 C 0,4 C 22,6 C 53 % 77 % 1017,7 hPa 0,0 l/m 2,1 km/h (1 Bft) O-NO 67 -1,9 C 1,7 C 5,1 km/h (1 Bft)
17.02.2020 04:48 23,0 C 1,9 C 0,4 C 22,6 C 53 % 77 % 1017,7 hPa 0,0 l/m 2,6 km/h (1 Bft) SO 135 -1,7 C 1,9 C 3,4 km/h (1 Bft)
17.02.2020 04:46 23,0 C 1,9 C 0,5 C 22,6 C 53 % 77 % 1017,7 hPa 0,0 l/m 3,7 km/h (1 Bft) S-SO 157 -1,7 C 1,9 C 3,6 km/h (1 Bft)
17.02.2020 04:44 23,0 C 1,9 C 0,5 C 22,7 C 53 % 77 % 1017,7 hPa 0,0 l/m 4,5 km/h (1 Bft) S-SO 157 -1,7 C 1,9 C 6,3 km/h (2 Bft)
17.02.2020 04:42 23,0 C 1,9 C 0,5 C 22,7 C 53 % 77 % 1017,7 hPa 0,0 l/m 4,8 km/h (1 Bft) O-SO 112 -1,7 C 1,9 C 10,1 km/h (2 Bft)
17.02.2020 04:40 23,0 C 1,9 C 0,6 C 22,7 C 53 % 77 % 1017,7 hPa 0,0 l/m 5,1 km/h (1 Bft) SO 135 -1,7 C 1,9 C 10,1 km/h (2 Bft)
17.02.2020 04:38 23,0 C 2,0 C 0,5 C 22,7 C 53 % 77 % 1017,7 hPa 0,0 l/m 5,5 km/h (1 Bft) S 180 -1,6 C 2,0 C 4,8 km/h (1 Bft)
17.02.2020 04:36 23,0 C 2,0 C 0,6 C 22,7 C 53 % 77 % 1017,7 hPa 0,0 l/m 6,1 km/h (2 Bft) S-SO 157 -1,6 C 2,0 C 8,9 km/h (2 Bft)
17.02.2020 04:34 23,1 C 2,0 C 0,6 C 22,7 C 53 % 77 % 1017,7 hPa 0,0 l/m 6,6 km/h (2 Bft) S-SO 157 -1,6 C 1,8 C 11,3 km/h (2 Bft)
17.02.2020 04:32 23,1 C 1,9 C 0,6 C 22,7 C 53 % 77 % 1017,7 hPa 0,0 l/m 6,9 km/h (2 Bft) SW 225 -1,7 C 1,4 C 14,7 km/h (3 Bft)
17.02.2020 04:30 23,1 C 1,9 C 0,5 C 22,7 C 53 % 77 % 1017,7 hPa 0,0 l/m 7,2 km/h (2 Bft) S 180 -1,7 C 1,1 C 11,8 km/h (2 Bft)
17.02.2020 04:28 23,1 C 2,0 C 0,6 C 22,7 C 53 % 77 % 1017,7 hPa 0,0 l/m 7,2 km/h (2 Bft) S 180 -1,6 C 1,2 C 11,1 km/h (2 Bft)
17.02.2020 04:26 23,1 C 1,9 C 0,6 C 22,7 C 53 % 77 % 1017,7 hPa 0,0 l/m 6,9 km/h (2 Bft) S-SO 157 -1,7 C 1,4 C 21,2 km/h (4 Bft)
17.02.2020 04:24 23,1 C 2,1 C 0,8 C 22,7 C 53 % 77 % 1017,7 hPa 0,0 l/m 5,8 km/h (2 Bft) S-SO 157 -1,5 C 2,1 C 11,6 km/h (2 Bft)
17.02.2020 04:22 23,1 C 2,1 C 0,8 C 22,7 C 53 % 77 % 1017,7 hPa 0,0 l/m 5,0 km/h (1 Bft) SO 135 -1,5 C 2,1 C 8,4 km/h (2 Bft)
17.02.2020 04:20 23,1 C 2,2 C 1,1 C 22,7 C 53 % 77 % 1017,7 hPa 0,0 l/m 4,3 km/h (1 Bft) SO 135 -1,4 C 2,2 C 13,8 km/h (3 Bft)
17.02.2020 04:18 23,1 C 2,2 C 1,3 C 22,7 C 53 % 77 % 1017,7 hPa 0,0 l/m 4,2 km/h (1 Bft) SO 135 -1,4 C 2,2 C 17,9 km/h (3 Bft)
17.02.2020 04:16 23,1 C 2,1 C 1,3 C 22,8 C 53 % 77 % 1017,7 hPa 0,0 l/m 4,0 km/h (1 Bft) SO 135 -1,5 C 2,1 C 9,9 km/h (2 Bft)
17.02.2020 04:14 23,1 C 2,1 C 1,2 C 22,7 C 53 % 77 % 1017,7 hPa 0,0 l/m 4,2 km/h (1 Bft) S-SO 157 -1,5 C 2,1 C 6,3 km/h (2 Bft)
17.02.2020 04:12 23,1 C 2,0 C 1,2 C 22,7 C 53 % 78 % 1017,7 hPa 0,0 l/m 4,3 km/h (1 Bft) O-NO 67 -1,4 C 2,0 C 0,0 km/h (0 Bft)
17.02.2020 04:10 23,2 C 2,0 C 1,2 C 22,8 C 53 % 78 % 1017,4 hPa 0,0 l/m 5,5 km/h (1 Bft) O 90 -1,4 C 2,0 C 5,6 km/h (1 Bft)
17.02.2020 04:08 23,1 C 1,9 C 1,2 C 22,8 C 53 % 79 % 1017,4 hPa 0,0 l/m 5,5 km/h (1 Bft) O 90 -1,3 C 1,9 C 7,2 km/h (2 Bft)
17.02.2020 04:06 23,2 C 1,9 C 1,1 C 22,8 C 53 % 79 % 1017,4 hPa 0,0 l/m 5,6 km/h (1 Bft) S-SO 157 -1,3 C 1,9 C 6,3 km/h (2 Bft)
17.02.2020 04:04 23,2 C 1,7 C 1,0 C 22,8 C 53 % 79 % 1017,4 hPa 0,0 l/m 5,6 km/h (1 Bft) SO 135 -1,5 C 1,7 C 8,9 km/h (2 Bft)
17.02.2020 04:02 23,2 C 1,7 C 0,8 C 22,8 C 53 % 79 % 1017,4 hPa 0,0 l/m 4,8 km/h (1 Bft) N-NW 337 -1,5 C 1,7 C 10,4 km/h (2 Bft)
17.02.2020 04:00 23,2 C 1,7 C 1,1 C 22,8 C 53 % 79 % 1017,4 hPa 0,0 l/m 3,5 km/h (1 Bft) SO 135 -1,5 C 1,7 C 16,4 km/h (3 Bft)
17.02.2020 03:58 23,2 C 1,6 C 1,2 C 22,8 C 53 % 80 % 1017,4 hPa 0,0 l/m 2,6 km/h (1 Bft) O-SO 112 -1,5 C 1,6 C 5,6 km/h (1 Bft)
17.02.2020 03:56 23,2 C 1,5 C 1,0 C 22,9 C 53 % 80 % 1017,4 hPa 0,0 l/m 2,1 km/h (1 Bft) S-SO 157 -1,6 C 1,5 C 9,9 km/h (2 Bft)
17.02.2020 03:54 23,2 C 1,4 C 0,6 C 22,8 C 53 % 80 % 1017,4 hPa 0,0 l/m 2,4 km/h (1 Bft) SO 135 -1,7 C 1,4 C 9,2 km/h (2 Bft)
17.02.2020 03:52 23,2 C 1,3 C 0,4 C 22,9 C 53 % 80 % 1017,4 hPa 0,0 l/m 3,4 km/h (1 Bft) NO 45 -1,8 C 1,3 C 0,0 km/h (0 Bft)
17.02.2020 03:50 23,2 C 1,3 C 0,4 C 22,9 C 53 % 80 % 1017,3 hPa 0,0 l/m 3,7 km/h (1 Bft) O-SO 112 -1,8 C 1,3 C 0,0 km/h (0 Bft)
17.02.2020 03:48 23,2 C 1,3 C 0,2 C 22,9 C 53 % 80 % 1017,3 hPa 0,0 l/m 5,1 km/h (1 Bft) SO 135 -1,8 C 1,3 C 3,9 km/h (1 Bft)
17.02.2020 03:46 23,2 C 1,3 C 0,0 C 22,9 C 53 % 80 % 1017,3 hPa 0,0 l/m 6,4 km/h (2 Bft) S-SO 157 -1,8 C 1,3 C 4,8 km/h (1 Bft)
17.02.2020 03:44 23,2 C 1,3 C 0,3 C 22,9 C 53 % 80 % 1017,3 hPa 0,0 l/m 7,7 km/h (2 Bft) S-SO 157 -1,8 C 0,0 C 8,7 km/h (2 Bft)
17.02.2020 03:42 23,2 C 1,3 C 0,5 C 22,9 C 53 % 80 % 1017,3 hPa 0,0 l/m 7,6 km/h (2 Bft) S-SO 157 -1,8 C 0,1 C 12,3 km/h (3 Bft)
17.02.2020 03:40 23,2 C 1,3 C 0,4 C 22,9 C 53 % 80 % 1017,3 hPa 0,0 l/m 7,6 km/h (2 Bft) SW 225 -1,8 C 0,1 C 2,4 km/h (1 Bft)
17.02.2020 03:38 23,2 C 1,1 C 0,5 C 22,9 C 53 % 81 % 1017,3 hPa 0,0 l/m 8,4 km/h (2 Bft) S-SO 157 -1,8 C -0,9 C 22,4 km/h (4 Bft)
17.02.2020 03:36 23,2 C 1,1 C 0,6 C 22,8 C 53 % 81 % 1017,3 hPa 0,0 l/m 8,0 km/h (2 Bft) S-SO 157 -1,8 C -0,5 C 17,6 km/h (3 Bft)
17.02.2020 03:34 23,2 C 1,0 C 0,6 C 22,8 C 53 % 81 % 1017,3 hPa 0,0 l/m 7,7 km/h (2 Bft) SO 135 -1,9 C -0,3 C 22,0 km/h (4 Bft)
17.02.2020 03:32 23,2 C 0,9 C 0,4 C 22,8 C 53 % 81 % 1017,3 hPa 0,0 l/m 7,9 km/h (2 Bft) S-SO 157 -2,0 C -0,6 C 12,6 km/h (3 Bft)
17.02.2020 03:30 23,2 C 0,8 C 0,6 C 22,8 C 53 % 81 % 1017,6 hPa 0,0 l/m 8,4 km/h (2 Bft) S-SO 157 -2,1 C -1,2 C 13,0 km/h (3 Bft)
17.02.2020 03:28 23,2 C 0,6 C 0,7 C 22,8 C 53 % 81 % 1017,6 hPa 0,0 l/m 7,6 km/h (2 Bft) SO 135 -2,3 C -0,6 C 14,7 km/h (3 Bft)
17.02.2020 03:26 23,3 C 0,4 C 0,4 C 22,8 C 53 % 81 % 1017,6 hPa 0,0 l/m 6,6 km/h (2 Bft) S 180 -2,5 C 0,2 C 13,3 km/h (3 Bft)
17.02.2020 03:24 23,3 C 0,2 C 0,3 C 22,8 C 53 % 81 % 1017,6 hPa 0,0 l/m 5,5 km/h (1 Bft) SO 135 -2,7 C 0,2 C 17,4 km/h (3 Bft)
17.02.2020 03:22 23,3 C -0,1 C -0,1 C 22,8 C 53 % 81 % 1017,6 hPa 0,0 l/m 3,4 km/h (1 Bft) S-SO 157 -3,0 C -0,1 C 15,7 km/h (3 Bft)
17.02.2020 03:20 23,3 C -0,2 C -0,5 C 22,9 C 53 % 80 % 1017,6 hPa 0,0 l/m 2,1 km/h (1 Bft) S 180 -3,2 C -0,2 C 13,8 km/h (3 Bft)
17.02.2020 03:18 23,3 C -0,2 C -0,8 C 22,9 C 53 % 80 % 1017,6 hPa 0,0 l/m 1,4 km/h (1 Bft) S-SO 157 -3,2 C -0,2 C 8,7 km/h (2 Bft)
17.02.2020 03:16 23,3 C -0,2 C -0,8 C 22,9 C 53 % 80 % 1017,6 hPa 0,0 l/m 1,0 km/h (0 Bft) S-SO 157 -3,2 C -0,2 C 3,9 km/h (1 Bft)
17.02.2020 03:14 23,2 C -0,2 C -0,9 C 22,9 C 53 % 80 % 1017,6 hPa 0,0 l/m 1,0 km/h (0 Bft) O 90 -3,2 C -0,2 C 0,0 km/h (0 Bft)
17.02.2020 03:12 23,2 C -0,1 C -1,1 C 22,9 C 53 % 80 % 1017,6 hPa 0,0 l/m 1,0 km/h (0 Bft) S-SW 202 -3,1 C -0,1 C 0,0 km/h (0 Bft)
17.02.2020 03:10 23,2 C -0,1 C -0,9 C 22,9 C 53 % 80 % 1017,4 hPa 0,0 l/m 1,3 km/h (1 Bft) N-NW 337 -3,1 C -0,1 C 0,0 km/h (0 Bft)
17.02.2020 03:08 23,2 C -0,1 C -0,8 C 22,9 C 53 % 80 % 1017,4 hPa 0,0 l/m 1,8 km/h (1 Bft) SO 135 -3,1 C -0,1 C 6,3 km/h (2 Bft)
17.02.2020 03:06 23,2 C -0,1 C -0,9 C 22,9 C 53 % 80 % 1017,4 hPa 0,0 l/m 1,8 km/h (1 Bft) S-SO 157 -3,1 C -0,1 C 3,9 km/h (1 Bft)
17.02.2020 03:04 23,4 C 0,1 C -0,8 C 22,9 C 53 % 80 % 1017,4 hPa 0,0 l/m 2,1 km/h (1 Bft) S 180 -2,9 C 0,1 C 0,0 km/h (0 Bft)
17.02.2020 03:02 23,2 C 0,1 C -0,7 C 22,9 C 53 % 79 % 1017,4 hPa 0,0 l/m 2,1 km/h (1 Bft) NO 45 -3,1 C 0,1 C 0,0 km/h (0 Bft)
17.02.2020 03:00 23,2 C 0,1 C -0,7 C 22,9 C 53 % 79 % 1017,4 hPa 0,0 l/m 2,1 km/h (1 Bft) SO 135 -3,1 C 0,1 C 6,0 km/h (2 Bft)
17.02.2020 02:58 23,4 C 0,1 C -0,8 C 22,9 C 53 % 79 % 1017,4 hPa 0,0 l/m 1,6 km/h (1 Bft) S 180 -3,1 C 0,1 C 5,1 km/h (1 Bft)
17.02.2020 02:56 23,4 C 0,1 C -0,6 C 22,9 C 53 % 79 % 1017,4 hPa 0,0 l/m 1,0 km/h (0 Bft) S-SO 157 -3,1 C 0,1 C 6,5 km/h (2 Bft)
17.02.2020 02:54 23,4 C 0,2 C -0,6 C 22,9 C 53 % 79 % 1017,4 hPa 0,0 l/m 0,6 km/h (0 Bft) S-SO 157 -3,0 C 0,2 C 3,6 km/h (1 Bft)
17.02.2020 02:52 23,4 C 0,2 C -0,7 C 23,0 C 53 % 79 % 1017,4 hPa 0,0 l/m 0,2 km/h (0 Bft) S 180 -3,0 C 0,2 C 0,0 km/h (0 Bft)
17.02.2020 02:50 23,4 C 0,2 C -0,6 C 23,0 C 53 % 79 % 1017,6 hPa 0,0 l/m 0,2 km/h (0 Bft) S-SO 157 -3,0 C 0,2 C 0,0 km/h (0 Bft)
17.02.2020 02:48 23,4 C 0,2 C -0,6 C 23,0 C 53 % 79 % 1017,6 hPa 0,0 l/m 0,0 km/h (0 Bft) S 180 -3,0 C 0,2 C 3,1 km/h (1 Bft)
17.02.2020 02:46 23,4 C 0,2 C -0,6 C 23,0 C 53 % 79 % 1017,6 hPa 0,0 l/m 0,0 km/h (0 Bft) O 90 -3,0 C 0,2 C 0,0 km/h (0 Bft)
17.02.2020 02:44 23,4 C 0,2 C -0,6 C 23,0 C 53 % 79 % 1017,6 hPa 0,0 l/m 0,0 km/h (0 Bft) SO 135 -3,0 C 0,2 C 0,0 km/h (0 Bft)
17.02.2020 02:42 23,4 C 0,3 C -0,8 C 23,1 C 53 % 79 % 1017,6 hPa 0,0 l/m 0,0 km/h (0 Bft) S 180 -2,9 C 0,3 C 0,0 km/h (0 Bft)
17.02.2020 02:40 23,4 C 0,3 C -0,8 C 23,1 C 53 % 78 % 1017,6 hPa 0,0 l/m 0,2 km/h (0 Bft) NO 45 -3,1 C 0,3 C 0,0 km/h (0 Bft)
17.02.2020 02:38 23,4 C 0,3 C -0,7 C 23,1 C 53 % 78 % 1017,6 hPa 0,0 l/m 0,2 km/h (0 Bft) NO 45 -3,1 C 0,3 C 0,0 km/h (0 Bft)
17.02.2020 02:36 23,4 C 0,3 C -0,7 C 23,1 C 53 % 78 % 1017,6 hPa 0,0 l/m 0,3 km/h (0 Bft) S 180 -3,1 C 0,3 C 0,0 km/h (0 Bft)
17.02.2020 02:34 23,4 C 0,3 C -0,7 C 23,1 C 53 % 78 % 1017,6 hPa 0,0 l/m 0,3 km/h (0 Bft) S-SW 202 -3,1 C 0,3 C 0,0 km/h (0 Bft)
17.02.2020 02:32 23,4 C 0,3 C -0,4 C 23,1 C 53 % 78 % 1017,6 hPa 0,0 l/m 0,8 km/h (0 Bft) O-NO 67 -3,1 C 0,3 C 2,9 km/h (1 Bft)
17.02.2020 02:30 23,4 C 0,3 C -0,5 C 23,1 C 53 % 78 % 1017,3 hPa 0,0 l/m 0,6 km/h (0 Bft) SO 135 -3,1 C 0,3 C 0,0 km/h (0 Bft)
17.02.2020 02:28 23,5 C 0,3 C -0,6 C 23,1 C 53 % 78 % 1017,3 hPa 0,0 l/m 0,8 km/h (0 Bft) SW 225 -3,1 C 0,3 C 0,0 km/h (0 Bft)
17.02.2020 02:26 23,5 C 0,3 C -0,4 C 23,1 C 53 % 78 % 1017,3 hPa 0,0 l/m 0,8 km/h (0 Bft) O-NO 67 -3,1 C 0,3 C 2,4 km/h (1 Bft)
17.02.2020 02:24 23,5 C 0,3 C -0,6 C 23,0 C 53 % 78 % 1017,3 hPa 0,0 l/m 0,5 km/h (0 Bft) SO 135 -3,1 C 0,3 C 0,0 km/h (0 Bft)
17.02.2020 02:22 23,5 C 0,3 C -0,6 C 23,0 C 53 % 77 % 1017,3 hPa 0,0 l/m 0,3 km/h (0 Bft) O-NO 67 -3,2 C 0,3 C 5,8 km/h (2 Bft)
17.02.2020 02:20 23,5 C 0,3 C -0,6 C 23,0 C 53 % 77 % 1017,3 hPa 0,0 l/m 0,0 km/h (0 Bft) O-NO 67 -3,2 C 0,3 C 0,0 km/h (0 Bft)
17.02.2020 02:18 23,5 C 0,3 C -0,6 C 23,0 C 53 % 77 % 1017,3 hPa 0,0 l/m 0,0 km/h (0 Bft) O-NO 67 -3,2 C 0,3 C 0,0 km/h (0 Bft)
17.02.2020 02:16 23,5 C 0,3 C -0,6 C 23,0 C 53 % 77 % 1017,3 hPa 0,0 l/m 0,0 km/h (0 Bft) O 90 -3,2 C 0,3 C 0,0 km/h (0 Bft)
17.02.2020 02:14 23,5 C 0,4 C -0,6 C 23,0 C 53 % 77 % 1017,3 hPa 0,0 l/m 0,0 km/h (0 Bft) SO 135 -3,1 C 0,4 C 0,0 km/h (0 Bft)
17.02.2020 02:12 23,5 C 0,4 C -0,8 C 23,0 C 53 % 77 % 1017,3 hPa 0,0 l/m 0,0 km/h (0 Bft) SO 135 -3,1 C 0,4 C 0,0 km/h (0 Bft)
17.02.2020 02:10 23,5 C 0,5 C -0,8 C 23,1 C 53 % 77 % 1017,2 hPa 0,0 l/m 0,0 km/h (0 Bft) S-SO 157 -3,1 C 0,5 C 0,0 km/h (0 Bft)
17.02.2020 02:08 23,5 C 0,5 C -0,7 C 23,1 C 53 % 77 % 1017,2 hPa 0,0 l/m 0,0 km/h (0 Bft) S-SO 157 -3,1 C 0,5 C 0,0 km/h (0 Bft)
17.02.2020 02:06 23,5 C 0,7 C -0,8 C 23,1 C 53 % 77 % 1017,2 hPa 0,0 l/m 0,0 km/h (0 Bft) S 180 -2,9 C 0,7 C 0,0 km/h (0 Bft)
17.02.2020 02:04 23,5 C 0,8 C -0,7 C 23,1 C 53 % 76 % 1017,2 hPa 0,0 l/m 0,0 km/h (0 Bft) S 180 -2,9 C 0,8 C 0,0 km/h (0 Bft)
17.02.2020 02:02 23,5 C 0,8 C -0,6 C 23,1 C 53 % 76 % 1017,2 hPa 0,0 l/m 0,0 km/h (0 Bft) S-SO 157 -2,9 C 0,8 C 0,0 km/h (0 Bft)
17.02.2020 02:00 23,5 C 0,9 C -0,6 C 23,1 C 53 % 76 % 1017,2 hPa 0,0 l/m 0,0 km/h (0 Bft) O-NO 67 -2,8 C 0,9 C 0,0 km/h (0 Bft)
17.02.2020 01:58 23,5 C 0,9 C -0,6 C 23,1 C 53 % 76 % 1017,2 hPa 0,0 l/m 0,0 km/h (0 Bft) W-NW 292 -2,8 C 0,9 C 0,0 km/h (0 Bft)
17.02.2020 01:56 23,6 C 1,0 C -0,6 C 23,1 C 53 % 76 % 1017,2 hPa 0,0 l/m 0,0 km/h (0 Bft) S-SW 202 -2,7 C 1,0 C 0,0 km/h (0 Bft)
17.02.2020 01:54 23,5 C 1,0 C -0,4 C 23,1 C 53 % 76 % 1017,2 hPa 0,0 l/m 0,0 km/h (0 Bft) O-NO 67 -2,7 C 1,0 C 0,0 km/h (0 Bft)
17.02.2020 01:52 23,6 C 1,0 C -0,3 C 23,1 C 53 % 75 % 1017,2 hPa 0,0 l/m 0,2 km/h (0 Bft) SO 135 -2,9 C 1,0 C 0,0 km/h (0 Bft)
17.02.2020 01:50 23,6 C 1,1 C -0,3 C 23,1 C 53 % 75 % 1016,9 hPa 0,0 l/m 0,6 km/h (0 Bft) S-SO 157 -2,8 C 1,1 C 0,0 km/h (0 Bft)
17.02.2020 01:48 23,6 C 1,1 C -0,4 C 23,1 C 53 % 75 % 1016,9 hPa 0,0 l/m 1,1 km/h (1 Bft) SO 135 -2,8 C 1,1 C 0,0 km/h (0 Bft)
17.02.2020 01:46 23,6 C 1,3 C -0,5 C 23,1 C 53 % 75 % 1016,9 hPa 0,0 l/m 2,3 km/h (1 Bft) S 180 -2,6 C 1,3 C 0,0 km/h (0 Bft)
17.02.2020 01:44 23,6 C 1,4 C -0,5 C 23,1 C 53 % 75 % 1016,9 hPa 0,0 l/m 2,9 km/h (1 Bft) W-SW 247 -2,5 C 1,4 C 0,0 km/h (0 Bft)
17.02.2020 01:42 23,6 C 1,4 C -0,4 C 23,1 C 53 % 75 % 1016,9 hPa 0,0 l/m 3,7 km/h (1 Bft) O 90 -2,5 C 1,4 C 0,0 km/h (0 Bft)
17.02.2020 01:40 23,6 C 1,5 C -0,3 C 23,1 C 53 % 74 % 1016,9 hPa 0,0 l/m 4,0 km/h (1 Bft) NO 45 -2,6 C 1,5 C 5,3 km/h (1 Bft)
17.02.2020 01:38 23,6 C 1,7 C -0,2 C 23,1 C 53 % 74 % 1016,9 hPa 0,0 l/m 4,2 km/h (1 Bft) O-NO 67 -2,4 C 1,7 C 4,3 km/h (1 Bft)
17.02.2020 01:36 23,6 C 1,9 C 0,2 C 23,2 C 53 % 74 % 1016,9 hPa 0,0 l/m 4,5 km/h (1 Bft) SO 135 -2,2 C 1,9 C 12,8 km/h (3 Bft)
17.02.2020 01:34 23,6 C 2,2 C -0,1 C 23,2 C 53 % 74 % 1016,9 hPa 0,0 l/m 4,8 km/h (1 Bft) S 180 -1,9 C 2,2 C 9,9 km/h (2 Bft)
17.02.2020 01:32 23,6 C 2,3 C 0,3 C 23,2 C 53 % 74 % 1016,9 hPa 0,0 l/m 5,3 km/h (1 Bft) SW 225 -1,8 C 2,3 C 8,9 km/h (2 Bft)
17.02.2020 01:30 23,6 C 2,6 C 1,1 C 23,1 C 53 % 74 % 1016,4 hPa 0,0 l/m 5,3 km/h (1 Bft) S-SO 157 -1,6 C 2,6 C 6,3 km/h (2 Bft)
17.02.2020 01:28 23,6 C 2,6 C 1,3 C 23,2 C 53 % 74 % 1016,4 hPa 0,0 l/m 6,0 km/h (2 Bft) O-NO 67 -1,6 C 2,6 C 4,8 km/h (1 Bft)
17.02.2020 01:26 23,6 C 2,6 C 1,6 C 23,2 C 53 % 74 % 1016,4 hPa 0,0 l/m 5,5 km/h (1 Bft) S-SO 157 -1,6 C 2,6 C 11,6 km/h (2 Bft)
17.02.2020 01:24 23,6 C 2,7 C 1,3 C 23,2 C 53 % 74 % 1016,4 hPa 0,0 l/m 4,8 km/h (1 Bft) O 90 -1,5 C 2,7 C 9,7 km/h (2 Bft)
17.02.2020 01:22 23,6 C 2,7 C 1,5 C 23,3 C 53 % 74 % 1016,4 hPa 0,0 l/m 4,3 km/h (1 Bft) SO 135 -1,5 C 2,7 C 12,6 km/h (3 Bft)
17.02.2020 01:20 23,6 C 2,7 C 1,4 C 23,3 C 53 % 74 % 1016,4 hPa 0,0 l/m 4,2 km/h (1 Bft) SO 135 -1,5 C 2,7 C 11,1 km/h (2 Bft)
17.02.2020 01:18 23,6 C 2,6 C 1,6 C 23,3 C 53 % 74 % 1016,4 hPa 0,0 l/m 3,7 km/h (1 Bft) S-SO 157 -1,6 C 2,6 C 10,1 km/h (2 Bft)
17.02.2020 01:16 23,6 C 2,4 C 1,5 C 23,3 C 53 % 74 % 1016,4 hPa 0,0 l/m 3,2 km/h (1 Bft) O-NO 67 -1,7 C 2,4 C 4,6 km/h (1 Bft)
17.02.2020 01:14 23,6 C 2,4 C 1,4 C 23,3 C 53 % 74 % 1016,4 hPa 0,0 l/m 3,1 km/h (1 Bft) SO 135 -1,7 C 2,4 C 10,1 km/h (2 Bft)
17.02.2020 01:12 23,6 C 2,3 C 1,3 C 23,3 C 53 % 74 % 1016,4 hPa 0,0 l/m 2,9 km/h (1 Bft) S 180 -1,8 C 2,3 C 0,0 km/h (0 Bft)
17.02.2020 01:10 23,6 C 2,3 C 1,2 C 23,2 C 53 % 74 % 1016,6 hPa 0,0 l/m 2,7 km/h (1 Bft) SO 135 -1,8 C 2,3 C 11,6 km/h (2 Bft)
17.02.2020 01:08 23,7 C 2,3 C 0,7 C 23,3 C 53 % 74 % 1016,6 hPa 0,0 l/m 1,9 km/h (1 Bft) S-SO 157 -1,8 C 2,3 C 8,2 km/h (2 Bft)
17.02.2020 01:06 23,7 C 2,3 C 0,3 C 23,2 C 53 % 74 % 1016,6 hPa 0,0 l/m 1,9 km/h (1 Bft) O 90 -1,8 C 2,3 C 0,0 km/h (0 Bft)
17.02.2020 01:04 23,7 C 2,4 C 0,3 C 23,2 C 53 % 73 % 1016,6 hPa 0,0 l/m 2,1 km/h (1 Bft) O 90 -1,9 C 2,4 C 6,3 km/h (2 Bft)
17.02.2020 01:02 23,7 C 2,6 C 0,6 C 23,2 C 53 % 73 % 1016,6 hPa 0,0 l/m 2,4 km/h (1 Bft) O-NO 67 -1,7 C 2,6 C 4,8 km/h (1 Bft)
17.02.2020 01:00 23,7 C 2,7 C 1,2 C 23,2 C 53 % 73 % 1016,6 hPa 0,0 l/m 2,7 km/h (1 Bft) SO 135 -1,6 C 2,7 C 0,0 km/h (0 Bft)
17.02.2020 00:58 23,7 C 2,7 C 1,4 C 23,2 C 53 % 73 % 1016,6 hPa 0,0 l/m 3,7 km/h (1 Bft) O-SO 112 -1,6 C 2,7 C 3,9 km/h (1 Bft)
17.02.2020 00:56 23,7 C 2,8 C 1,3 C 23,2 C 53 % 73 % 1016,6 hPa 0,0 l/m 4,8 km/h (1 Bft) NO 45 -1,5 C 2,8 C 6,8 km/h (2 Bft)
17.02.2020 00:54 23,7 C 2,8 C 1,6 C 23,2 C 53 % 74 % 1016,6 hPa 0,0 l/m 5,3 km/h (1 Bft) O 90 -1,4 C 2,8 C 3,4 km/h (1 Bft)
17.02.2020 00:52 23,7 C 2,8 C 1,8 C 23,2 C 53 % 74 % 1016,6 hPa 0,0 l/m 5,5 km/h (1 Bft) S-SO 157 -1,4 C 2,8 C 7,7 km/h (2 Bft)
17.02.2020 00:50 23,7 C 2,8 C 1,6 C 23,2 C 53 % 74 % 1016,3 hPa 0,0 l/m 5,5 km/h (1 Bft) O-NO 67 -1,4 C 2,8 C 11,1 km/h (2 Bft)
17.02.2020 00:48 23,7 C 2,8 C 1,6 C 23,2 C 53 % 74 % 1016,3 hPa 0,0 l/m 4,8 km/h (1 Bft) O 90 -1,4 C 2,8 C 13,5 km/h (3 Bft)
17.02.2020 00:46 23,7 C 2,8 C 1,6 C 23,3 C 53 % 74 % 1016,3 hPa 0,0 l/m 4,5 km/h (1 Bft) S-SO 157 -1,4 C 2,8 C 19,3 km/h (3 Bft)
17.02.2020 00:44 23,8 C 2,8 C 1,6 C 23,3 C 53 % 74 % 1016,3 hPa 0,0 l/m 4,5 km/h (1 Bft) W-SW 247 -1,4 C 2,8 C 8,7 km/h (2 Bft)
17.02.2020 00:42 23,8 C 2,8 C 1,5 C 23,3 C 53 % 74 % 1016,3 hPa 0,0 l/m 5,1 km/h (1 Bft) O 90 -1,4 C 2,8 C 4,8 km/h (1 Bft)
17.02.2020 00:40 23,8 C 2,8 C 1,4 C 23,3 C 53 % 74 % 1016,3 hPa 0,0 l/m 6,4 km/h (2 Bft) SO 135 -1,4 C 2,8 C 4,1 km/h (1 Bft)
17.02.2020 00:38 23,8 C 2,7 C 1,5 C 23,3 C 53 % 74 % 1016,3 hPa 0,0 l/m 7,4 km/h (2 Bft) O 90 -1,5 C 1,7 C 5,1 km/h (1 Bft)
17.02.2020 00:36 23,8 C 2,7 C 1,5 C 23,3 C 53 % 74 % 1016,3 hPa 0,0 l/m 8,4 km/h (2 Bft) SO 135 -1,5 C 0,8 C 9,2 km/h (2 Bft)
17.02.2020 00:34 23,8 C 2,7 C 1,5 C 23,3 C 53 % 74 % 1016,3 hPa 0,0 l/m 8,0 km/h (2 Bft) SO 135 -1,5 C 1,2 C 12,3 km/h (3 Bft)
17.02.2020 00:32 23,8 C 2,7 C 1,5 C 23,3 C 53 % 74 % 1016,3 hPa 0,0 l/m 7,7 km/h (2 Bft) SO 135 -1,5 C 1,5 C 19,3 km/h (3 Bft)
17.02.2020 00:30 23,8 C 2,6 C 1,5 C 23,3 C 53 % 74 % 1016,5 hPa 0,0 l/m 7,4 km/h (2 Bft) SO 135 -1,6 C 1,6 C 14,2 km/h (3 Bft)
17.02.2020 00:28 23,8 C 2,6 C 1,6 C 23,3 C 53 % 74 % 1016,5 hPa 0,0 l/m 7,6 km/h (2 Bft) O-SO 112 -1,6 C 1,5 C 22,0 km/h (4 Bft)
17.02.2020 00:26 23,8 C 2,4 C 1,0 C 23,3 C 53 % 74 % 1016,5 hPa 0,0 l/m 7,6 km/h (2 Bft) S-SO 157 -1,7 C 1,2 C 14,7 km/h (3 Bft)
17.02.2020 00:24 23,8 C 2,6 C 0,7 C 23,3 C 53 % 73 % 1016,5 hPa 0,0 l/m 8,0 km/h (2 Bft) S 180 -1,7 C 1,1 C 8,4 km/h (2 Bft)
17.02.2020 00:22 23,8 C 2,7 C 0,6 C 23,3 C 53 % 73 % 1016,5 hPa 0,0 l/m 8,5 km/h (2 Bft) S-SO 157 -1,6 C 0,7 C 9,9 km/h (2 Bft)
17.02.2020 00:20 23,8 C 2,8 C 1,0 C 23,3 C 53 % 73 % 1016,5 hPa 0,0 l/m 9,2 km/h (2 Bft) S 180 -1,5 C 0,3 C 15,0 km/h (3 Bft)
17.02.2020 00:18 23,8 C 2,8 C 1,4 C 23,3 C 53 % 73 % 1016,5 hPa 0,0 l/m 8,9 km/h (2 Bft) SO 135 -1,5 C 0,5 C 19,3 km/h (3 Bft)
17.02.2020 00:16 23,8 C 2,8 C 1,4 C 23,4 C 53 % 73 % 1016,5 hPa 0,0 l/m 8,5 km/h (2 Bft) S-SO 157 -1,5 C 0,9 C 15,0 km/h (3 Bft)
17.02.2020 00:14 23,9 C 2,9 C 1,2 C 23,4 C 53 % 73 % 1016,5 hPa 0,0 l/m 8,5 km/h (2 Bft) S-SO 157 -1,5 C 1,0 C 14,7 km/h (3 Bft)
17.02.2020 00:12 23,9 C 3,0 C 1,6 C 23,4 C 53 % 72 % 1016,5 hPa 0,0 l/m 8,5 km/h (2 Bft) O-SO 112 -1,5 C 1,1 C 16,9 km/h (3 Bft)
17.02.2020 00:10 23,9 C 3,2 C 1,9 C 23,5 C 53 % 72 % 1016,4 hPa 0,0 l/m 8,5 km/h (2 Bft) O-SO 112 -1,3 C 1,3 C 16,9 km/h (3 Bft)
17.02.2020 00:08 23,9 C 3,2 C 1,9 C 23,5 C 53 % 72 % 1016,4 hPa 0,0 l/m 8,5 km/h (2 Bft) O-SO 112 -1,3 C 1,3 C 16,9 km/h (3 Bft)
17.02.2020 00:06 23,9 C 3,2 C 1,9 C 23,5 C 53 % 72 % 1016,4 hPa 0,0 l/m 8,5 km/h (2 Bft) O-SO 112 -1,3 C 1,3 C 16,9 km/h (3 Bft)
17.02.2020 00:04 23,9 C 3,2 C 1,9 C 23,5 C 53 % 72 % 1016,4 hPa 0,0 l/m 8,5 km/h (2 Bft) O-SO 112 -1,3 C 1,3 C 16,9 km/h (3 Bft)
17.02.2020 00:02 23,9 C 3,2 C 1,9 C 23,5 C 53 % 72 % 1016,4 hPa 0,0 l/m 8,7 km/h (2 Bft) O-SO 112 -1,3 C 1,1 C 5,6 km/h (1 Bft)
17.02.2020 00:00 23,9 C 3,0 C 1,9 C 23,5 C 53 % 72 % 1016,4 hPa 0,0 l/m 9,2 km/h (2 Bft) S-SO 157 -1,5 C 0,5 C 19,1 km/h (3 Bft)
_ Min-Zeit 05:56 03:14 03:12 05:36 00:00 00:00 00:32 - 01:54 - - 02:16 03:30 01:00
Minimum _ 22,8 C -0,2 C -1,1 C 22,5 C 53 % 72 % 1016,3 hPa - 0,0 km/h (0 Bft) - - -3,2 C -1,2 C 0,0 km/h (0 Bft)
_ Max-Zeit 00:00 00:02 00:00 07:54 06:56 03:22 04:52 00:00 00:00 - - 05:38 00:40 03:38
Maximum _ 23,9 C 3,2 C 1,9 C 24,0 C 54 % 81 % 1018,0 hPa 0,0 l/m 9,2 km/h
S-SO (2 Bft)
- - -1,1 C 2,8 C 22,4 km/h
S-SO (4 Bft)
Durchschnitt _ 23,3 C 1,7 C 0,6 C 23,1 C 53 % 77 % 1017,4 hPa #0,0 l/m 3,9 km/h (1 Bft) S-SO - -1,9 C 1,4 C 7,1 km/h (2 Bft)